www.pogodaiklimat.ru

Погода и климат >> Архив погоды >> Сейшелы >> Seychelles


АРХИВ ПОГОДЫ в Seychelles

Время (UTC), дата Ветер
(напр.,м/с)
 
Видим.   Явления Облачность Т
(С)
Тd
(С)
f
(%)
Тe
(С)
Тes
(С)
Комфортность P
(гПа)
Po
(гПа)
Тmin
(С)
Tmax
(С)
R
(мм)
S
(см)
09 17.02 СЗ 4 15 км 10/0
[]
+25.5 +23.8 90 +35 +43 очень
душно
1011.2 1011.0
12 17.02 З 2 40 км 10/0
[]
+26.4 +23.2 83 +36 +39 очень
душно
1010.3 1010.0
15 17.02 СЗ 4 40 км 10/0
[]
+25.8 +24.4 92 +36 +36 очень
душно
1012.0 1012.0
18 17.02 З 3 30 км 9/0
[]
+26.2 +22.6 81 +35 +35 очень
душно
1013.1 1013.0
21 17.02 З 3 30 км 9 баллов +26.5 +21.9 76 +34 +34 очень
душно
1012.0 1012.0
00 18.02 З 2 30 км 6 баллов +26.6 +23.1 81 +36 +36 очень
душно
1011.3 1011.0
03 18.02 СЗ 4 5000 м 9/0
[]
+26.0 +25.0 94 +37 +37 очень
душно
1012.9 1013.0
06 18.02 СЗ 3 40 км 6/0
[]
+29.9 +24.9 75 +43 +52 опасность
перегрева
1014.0 1014.0
09 18.02 СЗ 3 35 км 8 баллов +30.4 +24.9 72 +43 +47 опасность
перегрева
1012.7 1013.0
12 18.02 С 3 40 км 8 баллов +30.2 +25.1 74 +44 +45 опасность
перегрева
1010.9 1011.0
15 18.02 СЗ 2 40 км 9 баллов +28.7 +24.7 79 +41 +41 опасность
перегрева
1012.7 1013.0
18 18.02 СЗ 1 200 м 8/0
[]
+28.2 +24.8 82 +40 +40 очень
душно
1014.0 1014.0
21 18.02 З 2 40 км 6 баллов +27.6 +24.7 84 +39 +39 очень
душно
1012.7 1013.0
00 19.02 ЮЗ 1 40 км 6 баллов +27.0 +25.0 89 +39 +39 очень
душно
1012.1 1012.0
03 19.02 ЮЗ 2 45 км 6/4 500 м
[Cu Sc Ac trans Ci ing]
+25.9 +24.0 89 +36 +36 очень
душно
1013.9 1014.0
06 19.02 С 1 45 км 9/0
[]
+29.3 +24.9 77 +42 +52 опасность
перегрева
1015.0 1015.0
09 19.02 С 1 40 км 9 баллов +29.9 +25.2 76 +43 +46 опасность
перегрева
1013.2 1013.0
12 19.02 С 2 35 км 9 баллов +29.7 +25.6 79 +44 +45 опасность
перегрева
1011.7 1012.0
15 19.02 СЗ 1 35 км 9 баллов +28.7 +25.5 83 +42 +42 опасность
перегрева
1013.5 1014.0
18 19.02 С 2 35 км 4/0
[]
+28.4 +25.0 82 +41 +41 опасность
перегрева
1014.7 1015.0
21 19.02 З 1 35 км 4 балла +27.1 +25.0 88 +39 +39 очень
душно
1012.7 1013.0
00 20.02 З 1 30 км 9 баллов +26.9 +24.9 89 +39 +39 очень
душно
1011.0 1011.0
03 20.02 З 1 25 км 9 баллов +26.8 +24.8 89 +38 +38 очень
душно
1011.7 1012.0
06 20.02 С 2 30 км 8/4 540 м
[Cu Sc Ac trans Ci sp]
+29.7 +25.4 78 +44 +50 опасность
перегрева
1013.3 1013.0 +26.1
09 20.02 С 2 30 км 6 баллов +30.8 +25.8 75 +46 +55 опасность
перегрева
1011.6 1012.0
12 20.02 З 1 20 км 6/0
[]
+28.8 +26.0 85 +43 +49 опасность
перегрева
1009.8 1010.0
15 20.02 З 2 20 км 9/0
[]
+26.9 +24.8 88 +38 +38 очень
душно
1011.3 1011.0
18 20.02 СЗ 3 20 км {гроза, ливн. осадки} 9/4 360 м
[Cb cap Ac trans Ci ing]
+26.8 +23.9 84 +37 +37 очень
душно
1012.4 1012.0 +30.7 6
21 20.02 СЗ 3 8000 м 9/0
[]
+24.9 +24.0 95 +34 +34 очень
душно
1011.3 1011.0
00 21.02 СВ 3 8000 м 10/0
[]
+25.3 +24.3 94 +35 +35 очень
душно
1010.1 1010.0
03 21.02 З 1 20 км 9/0
[]
+24.8 +23.9 95 +34 +34 очень
душно
1011.0 1011.0
06 21.02 СЗ 2 25 км 9/0
[]
+28.5 +24.8 80 +41 +50 опасность
перегрева
1012.8 1013.0
09 21.02 С 5 25 км 9/5 480 м
[Cu Sc Ac trans Ci fib]
+27.9 +24.2 80 +39 +43 очень
душно
1010.9 1011.0
15 21.02 СЗ 2 10 км 9/0
[]
+25.8 +24.4 92 +36 +36 очень
душно
1010.9 1011.0
18 21.02 СЗ 2 15 км 10/0
[]
+25.2 +23.6 91 +34 +34 очень
душно
1012.0 1012.0
21 21.02 З 2 25 км 10 баллов +26.4 +23.2 83 +36 +36 очень
душно
1010.4 1010.0
00 22.02 З 1 25 км 9 баллов +26.4 +22.7 80 +35 +35 очень
душно
1010.2 1010.0
03 22.02 З 2 30 км 9 баллов +26.8 +23.1 80 +36 +36 очень
душно
1011.6 1012.0
06 22.02 В 1 30 км 9/0
[]
+27.6 +25.2 87 +40 +51 опасность
солнечного
удара
1013.1 1013.0
09 22.02 С 2 20 км 9/0
[]
+28.5 +23.3 73 +38 +50 очень
душно
1011.3 1011.0
12 22.02 ЮВ 2 10 км 10/0
[]
+24.6 +23.4 93 +33 +37 очень
душно
1010.0 1010.0
15 22.02 З 1 8000 м 10/0
[]
+24.3 +23.6 96 +33 +33 очень
душно
1012.3 1012.0
00 23.02 ЮЗ 1 20 км 8/0
[]
+25.3 +24.3 94 +35 +35 очень
душно
1010.4 1010.0
03 23.02 штиль 0 20 км 8/0
[]
+25.1 +24.4 96 +35 +36 очень
душно
1012.3 1012.0
06 23.02 СЗ 2 20 км 9/0
[]
+28.4 +25.0 82 +41 +50 опасность
перегрева
1014.1 1014.0
09 23.02 ЮВ 1 20 км 9/0
[]
+26.9 +25.6 93 +40 +53 опасность
солнечного
удара
1012.4 1012.0
12 23.02 ЮЗ 3 20 км 9/0
[]
+27.0 +23.4 81 +37 +40 очень
душно
1011.3 1011.0
15 23.02 З 2 40 км 9/0
[]
+26.0 +23.5 86 +35 +35 очень
душно
1012.1 1012.0
18 23.02 З 2 30 км 9/0
[]
+26.2 +23.1 83 +35 +35 очень
душно
1013.1 1013.0
21 23.02 З 1 30 км 9 баллов +26.0 +24.4 91 +36 +36 очень
душно
1011.3 1011.0
00 24.02 З 1 30 км 4 балла +25.1 +23.3 90 +34 +34 очень
душно
1010.7 1011.0
03 24.02 ЮЗ 1 20 км 9 баллов +25.8 +24.2 91 +36 +36 очень
душно
1012.0 1012.0

 

Местоположение метеостанции Seychelles (Сейшелы): широта -4.67 долгота 55.52 высота над уровнем моря 3 м.

В архиве по умолчанию представлена погода в Seychelles за последнюю неделю. Архивные данные за месяц целиком и за предыдущие месяцы, начиная с января 2011 года, Вы можете получить, выбрав интересующий диапазон дат из раскрывающегося списка и нажав кнопку "Ввод!".

Внимание! Время в таблицах - всемирное. Для получения местного времени необходимо прибавить поправку, которая в Seychelles равна 4 ч.

Смотрите также архив погоды в соседних городах и на ближайших метеорологических станциях:

Погода в Agalega (Маврикий) (655 км)
Погода в Antsiranana (Мадагаскар) (1094 км)
Погода в Iles Glorieuses (Реюньон) (1190 км)
Погода в Sambava (Мадагаскар) (1219 км)
Погода в Serge-Frolow (Реюньон) (1243 км)
Погода в Fascene (Мадагаскар) (1244 км)
Погода в Antalaha (Мадагаскар) (1274 км)
Погода в Mogadiscio (Сомали) (1354 км)
Погода в Saint Brandon Saint Raphael (Маврикий) (1385 км)
Погода в Antsohihy (Мадагаскар) (1404 км)

Пояснения к столбцам:

Ветер - указаны скорость ветра в м/с - средняя за 10 мин, порывы в срок и между сроками (в фигурных скобках) и направление, откуда дует ветер: С - северный, СВ - северо-восточный, В - восточный, ЮВ - юго-восточный, Ю - южный, ЮЗ - юго-западный, З - западный, СЗ - северо-западный.
Видимость - горизонтальная дальность видимости в метрах или километрах. При видимости от 1 до 10 км при отсутствии осадков обычно наблюдается дымка, при ухудшении видимости до 1 км и менее - туман. В сухую погоду видимость может ухудшаться дымом, пылью или мглою.
Явления - указаны атмосферные явления, наблюдавшиеся в срок или в последний час перед сроком; фигурными скобками обозначены явления, наблюдавшиеся между сроками (за 1-3 часа до срока); квадратными скобками обозначены град или гололедные отложения с указанием их диаметра в мм.
Облачность - указаны через наклонную черту общая и нижняя облачность в баллах и высота нижней границы облаков в метрах; квадратными скобками обозначены формы облаков: Ci - перистые, Cs - перисто-слоистые, Cc - перисто-кучевые, Ac - высококучевые, As - высокослоистые, Sc - слоисто-кучевые, Ns - слоисто-дождевые, Cu - кучевые, Cb - кучево-дождевые. Подробнее классификацию облаков см. в Атласе облаков (PDF).
T - Температура воздуха - температура, измеренная на высоте 2 м над землей.
Td - Температура точки росы - температура, при понижении до которой содержащийся в воздухе водяной пар достигнет насыщения.
f - Относительная влажность воздуха - влажноcть воздуха, измеренная на высоте 2 м над землей.
Te - Эффективная температура - температура, которую ощущает одетый по сезону человек в тени. Характеристика душности погоды. При расчете учитывается влияние влажности воздуха и скорости ветра на теплоощущения человека.
Tes - Эффективная температура на солнце - температура, которую ощущает человек, с поправкой на солнечный нагрев. Характеристика знойности погоды. Зависит от высоты солнца над горизонтом, облачности и скорости ветра. Ночью, в пасмурную погоду, а также при ветре 12 м/с и более поправка равна нулю.
P - Атмосферное давление - приведенное к уровню моря атмосферное давление.
Po - Атмосферное давление - измеренное на уровне метеостанции атмосферное давление.
Tmin - Минимальная температура - минимум температуры воздуха на высоте 2 м над землей.
Tmax - Максимальная температура - максимум температуры воздуха на высоте 2 м над землей.
R - Количество осадков - Количество выпавших осадков, мм. При наведении курсора мыши на число - период времени, за который выпало указанное количество осадков.
S - Снежный покров - Высота снежного покрова, см. При наведении курсора мыши на число - состояние снежного покрова и степень покрытия местности в баллах.